Theta_e
313 312 311 315 314 315 316 320 321 317 317 320 322 321 320 315 320 323 324 330 332 333 331 330 333 337 337 334 333 333 332 332 332 330 327 324 324 325 327 329 329 329 329 329
311 314 313 314 314 316 316 316 316 316 316 319 320 320 319 316 314 318 320 326 330 332 332 332 332 337 337 334 335 336 335 335 334 334 332 330 327 327 329 329 331 331 332 332
313 313 312 313 315 315 315 315 316 317 315 316 318 319 319 311 312 312 312 312 323 328 330 333 334 334 335 336 336 336 335 335 334 334 333 332 331 332 331 331 331 331 332 331
309 312 312 312 314 315 316 313 313 315 315 318 314 321 313 312 307 306 307 309 309 315 326 329 331 333 334 333 333 333 332 331 331 333 334 334 333 332 332 331 331 331 333 330
308 313 312 311 312 313 314 313 314 314 315 314 314 316 315 312 307 306 305 307 308 309 312 318 322 326 331 332 332 332 332 332 332 332 332 333 334 333 332 331 331 331 330 329
309 309 310 309 311 311 312 313 313 313 315 317 316 315 316 311 309 307 306 307 307 308 309 310 313 316 318 318 321 324 321 325 326 329 331 332 334 333 332 332 330 330 329 328
307 308 308 309 310 310 310 312 310 314 317 318 314 315 311 308 306 306 306 308 308 309 309 309 309 308 309 313 314 315 315 315 316 317 322 326 328 329 329 328 326 320 317 316
309 306 309 308 310 311 311 311 306 311 317 313 313 319 313 308 307 307 308 308 309 309 309 310 310 309 309 308 308 308 309 312 313 313 313 313 313 313 313 312 310 310 309 310
313 310 308 309 309 309 311 311 311 310 303 310 310 306 307 306 307 307 308 308 309 308 309 310 310 310 310 310 309 309 309 310 311 311 311 311 310 310 310 310 312 312 312 312
310 312 309 309 308 308 309 309 308 305 305 312 311 307 308 307 307 306 306 307 308 309 309 309 309 310 310 310 310 310 310 310 310 311 311 312 313 313 313 313 313 313 313 313
307 310 310 308 309 309 308 309 310 308 309 312 311 306 305 307 306 306 306 307 307 308 308 309 309 309 309 310 310 310 310 310 310 310 310 309 309 309 308 308 308 308 309 310
306 308 311 310 308 308 309 309 309 306 309 309 310 306 305 306 306 306 306 306 307 307 307 307 308 309 310 309 309 309 309 309 308 308 307 307 307 306 306 306 306 306 306 306
307 306 302 301 305 306 308 309 309 308 307 309 307 307 304 306 306 306 305 306 307 308 308 308 308 307 308 309 308 307 306 306 306 305 305 305 304 304 304 304 304 304 304 305
305 306 303 302 305 307 307 309 309 307 305 309 309 309 306 307 305 304 305 305 305 304 303 304 305 307 307 307 308 307 306 305 304 304 304 304 304 304 304 304 304 304 304 304
303 297 301 302 301 304 305 307 307 310 307 306 307 310 308 307 304 303 303 305 303 302 302 301 302 303 304 307 307 307 306 305 304 305 305 304 304 304 304 304 304 304 304 304
300 294 297 297 300 300 302 302 302 304 307 307 308 308 305 305 303 302 303 304 302 302 301 301 301 301 302 303 303 306 307 306 306 305 305 305 304 304 304 304 304 303 303 303
299 292 287 292 295 292 291 295 300 301 303 305 306 305 302 301 300 303 303 302 301 300 300 300 300 300 300 301 302 303 303 306 306 306 306 306 305 304 304 303 303 303 303 302
295 288 285 288 285 290 296 295 297 299 300 300 300 300 302 299 302 302 300 300 300 300 300 300 300 300 300 300 301 302 302 303 304 307 306 305 305 304 304 304 303 302 302 301
298 297 289 289 281 292 297 297 298 299 298 297 297 298 299 301 302 301 301 300 300 299 300 300 300 300 300 301 301 301 302 302 303 304 306 306 305 304 304 303 303 302 300 300
297 296 290 287 288 289 295 299 299 297 295 298 299 299 300 299 296 295 300 300 300 299 299 300 300 301 301 301 302 302 302 302 302 302 303 304 304 304 303 302 302 301 301 300
290 298 290 283 285 291 295 298 299 294 296 299 300 300 300 298 299 299 299 300 300 299 299 300 300 300 301 301 301 302 302 302 302 303 304 303 303 302 302 302 300 303 302 300
295 292 295 297 291 293 297 298 298 298 299 299 300 300 300 300 300 299 299 299 300 299 299 299 299 300 301 301 301 301 301 301 302 303 303 302 302 301 301 299 299 298 297 297
294 294 294 294 295 297 298 299 300 299 299 300 300 300 299 299 299 299 299 299 299 299 299 299 299 300 301 301 300 298 299 300 301 300 300 299 298 297 297 297 299 301 300 297
295 296 295 297 297 297 299 299 300 300 299 299 299 299 299 299 299 299 299 299 299 299 299 299 299 300 301 301 300 298 297 297 298 298 298 297 299 299 300 301 299 299 299 299
295 295 295 294 296 297 299 299 299 299 299 299 299 299 299 299 299 299 299 299 299 298 299 299 299 300 302 301 300 299 298 299 298 298 297 297 298 298 297 298 297 298 297 295
296 295 297 296 298 298 299 299 299 299 299 299 299 299 299 299 298 298 298 298 298 298 299 299 299 301 301 301 300 300 299 298 300 299 299 298 298 297 297 297 296 296 295 294
Wind_Speed
4 4 6 8 6 7 7 10 12 4 5 3 11 2 10 17 1 7 9 22 24 22 15 16 36 36 23 28 27 23 21 20 19 21 21 21 21 20 21 21 21 20 19 17
3 7 9 4 5 10 11 12 5 4 3 6 1 6 5 19 5 9 9 8 19 21 19 18 23 34 26 27 26 23 22 21 20 20 19 19 18 20 20 18 18 19 18 18
5 2 5 2 6 11 9 6 8 7 2 5 4 2 4 18 19 19 19 14 4 6 16 19 19 28 28 26 26 24 22 18 18 17 16 17 17 20 19 20 20 20 19 18
3 2 1 4 1 6 4 5 3 10 6 3 2 2 4 10 6 7 17 17 15 10 7 10 13 19 25 24 25 25 24 22 21 19 19 19 20 22 22 19 17 14 16 17
2 1 4 3 0 1 2 3 3 5 6 7 5 2 2 7 6 5 10 16 14 11 7 5 5 6 8 12 15 16 17 18 18 19 21 20 22 21 21 21 20 17 16 17
1 1 1 3 4 3 2 3 7 5 3 3 1 2 3 3 6 7 10 12 11 11 7 2 1 4 6 9 10 15 16 18 19 20 21 22 23 24 24 22 21 18 18 19
6 4 4 3 4 4 4 3 2 3 1 1 4 6 1 6 5 4 6 11 10 9 7 7 3 5 10 10 11 14 15 14 16 18 21 24 25 25 24 22 21 19 20 22
2 5 5 6 1 2 3 2 3 5 3 3 3 2 3 3 2 4 4 5 6 8 8 7 6 6 5 5 8 12 15 16 16 15 15 15 16 17 17 17 18 17 16 16
3 2 1 1 3 2 4 2 2 5 3 4 3 2 3 3 2 6 9 9 9 9 7 7 6 6 6 6 5 4 6 7 10 11 12 13 13 13 12 10 9 8 8 9
2 2 2 2 3 1 2 2 3 3 3 3 2 1 6 2 0 3 6 9 9 7 7 6 6 6 6 5 3 3 3 3 4 6 6 6 6 7 6 5 5 4 5 5
2 1 3 3 3 2 5 4 3 3 2 2 4 1 4 5 4 4 7 11 11 11 11 11 9 8 7 5 4 3 2 3 3 4 5 5 6 6 6 5 5 4 4 4
3 2 1 1 4 3 2 3 2 3 3 2 2 2 6 4 2 5 8 12 12 13 13 13 14 11 9 7 5 5 5 5 6 7 6 6 6 6 6 5 4 3 3 3
2 1 1 7 5 5 5 4 2 4 2 2 3 3 5 5 2 6 9 12 14 13 14 14 15 15 12 9 7 6 6 6 7 8 8 9 9 8 7 5 4 3 3 4
3 2 3 4 2 1 2 3 3 3 3 1 2 2 4 6 7 9 10 11 12 14 16 15 14 14 13 11 9 9 8 7 8 8 8 7 7 7 6 6 5 4 4 4
3 3 1 3 4 2 1 1 1 2 2 4 4 1 4 3 2 4 7 9 12 14 17 19 18 17 13 11 9 7 8 11 11 10 11 10 10 9 9 9 7 6 6 5
2 1 2 4 5 5 3 4 3 0 2 4 4 6 4 2 4 2 6 7 10 12 15 16 17 19 18 16 13 10 8 8 13 15 15 14 14 13 13 12 11 9 8 9
3 3 3 3 4 5 5 4 4 2 3 4 4 6 4 3 6 2 3 7 10 12 15 17 18 18 19 20 19 16 13 13 14 14 15 18 19 18 16 15 13 13 12 8
3 3 2 2 4 2 5 3 6 6 5 6 4 5 8 7 3 7 9 9 12 15 17 17 19 19 19 18 18 19 18 15 15 17 16 17 19 20 19 16 15 15 11 9
1 4 3 3 3 5 4 3 3 4 4 6 6 2 4 4 7 3 2 8 11 16 17 19 21 22 22 21 20 19 18 19 18 17 18 18 19 21 20 18 15 14 11 12
2 5 4 3 4 4 4 2 4 3 4 2 4 5 7 4 2 4 10 12 16 18 17 18 18 19 20 21 21 20 19 19 20 18 18 19 20 21 22 20 18 14 14 11
2 1 4 1 1 7 8 9 4 6 5 1 4 5 4 2 2 12 15 16 18 19 19 16 18 20 21 21 21 21 20 19 18 18 19 17 16 18 19 19 16 12 12 13
5 5 3 2 2 7 7 5 5 5 1 2 3 4 4 9 12 19 17 18 21 20 18 15 18 18 17 19 20 20 20 18 15 13 12 10 12 15 17 16 13 11 11 9
3 5 5 8 6 6 8 5 12 3 7 10 13 15 19 21 22 19 18 16 17 17 15 20 21 18 14 14 15 15 15 15 11 7 4 4 6 7 8 8 6 5 6 9
4 8 2 3 5 16 20 14 15 15 19 18 17 17 17 20 19 19 17 19 20 20 22 24 21 16 12 12 13 12 9 9 9 6 2 2 2 2 5 10 6 6 9 12
5 8 5 5 7 12 22 23 19 14 13 15 16 20 19 21 22 21 23 24 25 24 24 23 20 15 12 12 12 11 7 4 4 4 1 1 3 4 6 7 8 10 14 21
12 7 6 5 11 7 17 16 16 16 23 23 24 27 22 20 20 20 23 24 24 22 21 19 16 17 15 14 12 10 10 9 7 9 11 9 10 12 12 13 15 16 17 17
Wind_Direction
41 18 22 84 134 112 104 113 99 56 1 79 215 272 314 334 259 165 188 207 204 207 205 204 198 200 209 212 216 222 224 225 224 222 219 223 230 237 245 249 250 251 255 252
60 24 359 31 129 136 106 102 65 67 13 53 354 197 305 315 323 52 21 234 218 214 197 193 197 203 209 205 216 225 229 229 231 232 236 238 243 247 253 254 256 258 258 258
51 70 38 89 40 88 64 103 137 116 58 41 95 284 354 336 24 43 53 54 72 231 207 204 198 201 212 212 218 221 220 222 230 235 236 239 240 244 247 250 255 258 262 262
32 360 1 44 80 337 73 321 90 130 141 115 339 154 80 313 58 7 40 37 38 61 170 183 195 210 215 219 219 222 222 224 229 231 225 229 237 243 247 255 256 260 255 254
295 219 318 323 206 241 203 304 27 83 92 115 6 88 44 325 9 353 12 23 20 32 59 102 146 179 198 212 218 228 234 236 238 243 242 243 244 247 250 252 255 257 251 255
41 140 206 311 7 346 45 15 33 58 46 68 180 90 42 2 294 316 356 10 7 7 11 22 193 195 209 221 231 236 245 245 250 248 242 239 241 244 248 250 256 249 251 251
6 347 343 51 14 348 5 39 33 40 59 127 199 82 211 223 247 282 329 1 20 14 15 7 346 263 251 243 241 244 247 248 247 245 245 247 249 251 253 253 254 255 256 257
16 351 9 348 2 310 244 181 163 153 156 123 355 118 198 239 345 12 53 46 25 10 14 12 15 6 350 313 271 255 250 248 244 242 239 239 240 242 247 251 255 257 256 255
357 339 321 34 336 12 299 320 213 107 29 87 155 88 129 246 23 59 50 47 23 15 16 13 12 7 3 356 346 302 265 248 242 238 238 240 242 244 245 243 239 238 246 253
24 320 345 299 351 296 195 287 5 11 92 88 100 103 145 161 94 349 34 46 43 31 21 2 351 0 3 358 347 332 300 269 243 232 222 218 216 216 216 221 230 233 241 246
1 341 328 36 39 346 345 360 28 100 82 146 126 248 173 159 179 82 34 36 29 25 25 21 11 3 354 341 331 321 265 240 231 221 213 207 211 213 215 205 209 215 225 237
319 75 61 314 295 289 255 332 77 96 301 2 82 196 143 127 347 104 67 45 41 38 32 30 25 14 357 336 316 297 278 254 233 219 220 211 210 204 198 201 199 209 220 242
189 14 21 350 353 4 43 354 49 101 67 352 90 210 145 104 25 29 48 50 48 44 37 34 32 29 16 352 326 300 278 261 252 252 225 201 200 208 207 210 214 232 251 262
75 45 150 176 212 273 12 35 17 74 94 195 221 80 172 354 358 43 53 43 41 39 35 31 28 26 25 16 353 324 292 263 253 248 240 249 257 244 227 226 221 235 244 250
109 118 51 36 6 16 323 302 55 157 174 147 261 212 247 312 346 57 42 69 62 47 38 30 24 20 10 5 4 340 315 289 270 256 254 255 253 250 245 236 230 237 245 251
30 166 84 351 354 14 300 279 264 50 268 280 275 286 261 342 16 11 34 72 57 34 26 19 15 11 6 0 348 332 312 284 283 276 265 258 257 255 250 243 237 237 238 234
65 117 72 262 343 347 347 220 212 172 189 160 180 235 348 326 334 21 72 60 38 22 13 7 4 1 356 350 340 334 316 295 277 267 277 275 265 255 244 241 242 240 233 234
119 83 60 201 16 29 247 281 220 189 212 217 240 230 220 262 254 116 90 51 24 7 357 351 346 343 341 337 332 325 321 303 283 273 266 266 267 263 258 252 250 250 243 245
54 114 84 123 179 293 329 335 144 173 280 201 225 254 256 127 138 149 59 2 359 346 338 335 337 338 337 334 328 320 315 313 304 287 266 264 262 255 249 247 248 250 243 247
58 80 112 79 119 205 245 285 83 95 319 337 205 140 144 104 48 265 332 319 324 329 330 327 331 333 333 335 333 329 322 314 305 299 281 266 261 253 245 237 223 225 240 265
82 133 151 158 192 286 243 240 9 82 238 141 146 150 167 161 212 328 321 303 309 316 320 320 324 328 331 335 337 337 331 320 310 301 291 275 260 246 242 235 214 252 257 256
164 143 181 115 88 282 201 74 171 208 141 10 249 257 270 284 290 314 312 300 299 302 305 315 324 325 322 328 333 339 338 329 318 307 294 279 258 242 232 221 226 213 211 222
195 180 177 184 210 240 204 227 214 272 300 298 296 294 300 299 301 305 300 305 302 297 294 308 311 314 311 320 330 336 345 339 331 321 310 282 249 225 199 186 215 239 249 262
241 190 202 126 249 238 253 257 259 275 294 304 301 303 300 295 297 291 294 293 299 289 292 297 300 300 297 304 314 324 342 1 353 0 348 165 228 227 265 262 233 240 275 270
205 149 194 260 275 270 263 263 280 295 299 303 303 306 304 299 294 289 292 288 293 289 288 290 287 278 284 294 302 301 310 360 30 32 75 191 247 267 277 273 274 279 285 266
198 188 194 232 205 232 273 290 296 291 293 297 300 301 299 298 291 291 287 287 285 280 285 281 280 271 273 277 282 288 282 277 272 277 280 278 275 273 270 271 277 281 282 283